Terminal Aerodrome Forecast
Issued by NWS

Home | Current Version | Previous Version | Text Only | Print | Product List | Glossary On
Versions: 1 2 3 4 5 6 7 8 9 10 11 12 13 14 15 16 17 18 19 20 21 22 23 24
000
FTUS45 KPSR 172300
TAFPHX
TAF
KPHX 172332Z 1800/1824 25006KT P6SM SCT030 BKN060 OVC100
     FM180130 VRB04KT P6SM VCSH SCT070 BKN100 BKN180
     FM180700 10006KT P6SM SCT060 BKN080 BKN120=

USA.gov is the U.S. government's official web portal to all federal, state and local government web resources and services.